| time (UTC) | temp F | wind direction | speed MPH | gust MPH | rain 1hr in | rain 24hr in | rain mn in | humidity % | barometer mb |
| 20260902191556 | 55 | 178 | 5.0 | 20.0 | 0.00 | 0.00 | 0.00 | 53 | 1021.1 |
| 20260902190050 | 54 | 211 | 8.0 | 22.0 | 0.00 | 0.00 | 0.00 | 51 | 1021.0 |
| 20260902184558 | 54 | 186 | 4.0 | 17.0 | 0.00 | 0.00 | 0.00 | 53 | 1021.0 |
| 20260902183048 | 54 | 184 | 7.0 | 19.0 | 0.00 | 0.00 | 0.00 | 51 | 1021.0 |
| 20260902181546 | 54 | 205 | 3.0 | 12.0 | 0.00 | 0.00 | 0.00 | 53 | 1021.0 |
| 20260902180122 | 53 | 189 | 5.0 | 15.0 | 0.00 | 0.00 | 0.00 | 55 | 1020.8 |
| 20260902174544 | 51 | 193 | 6.0 | 15.0 | 0.00 | 0.00 | 0.00 | 57 | 1020.9 |
| 20260902173047 | 51 | 242 | 5.0 | 12.0 | 0.00 | 0.00 | 0.00 | 58 | 1020.7 |
| 20260902171602 | 49 | 178 | 3.0 | 17.0 | 0.00 | 0.00 | 0.00 | 60 | 1020.6 |
| 20260902170044 | 50 | 182 | 3.0 | 13.0 | 0.00 | 0.00 | 0.00 | 59 | 1020.6 |
| 20260902164553 | 50 | 175 | 1.0 | 11.0 | 0.00 | 0.00 | 0.00 | 61 | 1020.5 |
| 20260902163056 | 48 | 0 | 4.0 | 10.0 | 0.00 | 0.00 | 0.00 | 64 | 1020.3 |
| 20260902161553 | 47 | 161 | 1.0 | 12.0 | 0.00 | 0.00 | 0.00 | 66 | 1020.3 |
| 20260902160043 | 47 | 161 | 2.0 | 10.0 | 0.00 | 0.00 | 0.00 | 66 | 1020.4 |
| 20260902154550 | 46 | 157 | 1.0 | 8.0 | 0.00 | 0.00 | 0.00 | 66 | 1020.5 |
| 20260902153045 | 45 | 188 | 1.0 | 11.0 | 0.00 | 0.00 | 0.00 | 68 | 1020.5 |
| 20260902151551 | 45 | 171 | 1.0 | 13.0 | 0.00 | 0.00 | 0.00 | 70 | 1020.6 |
| 20260902150046 | 45 | 105 | 2.0 | 9.0 | 0.00 | 0.00 | 0.00 | 70 | 1020.5 |
| 20260902144544 | 44 | 198 | 1.0 | 6.0 | 0.00 | 0.00 | 0.00 | 71 | 1020.5 |
| 20260902143050 | 44 | 0 | 0.0 | 4.0 | 0.00 | 0.00 | 0.00 | 70 | 1020.2 |
| 20260902141548 | 43 | 271 | 1.0 | 4.0 | 0.00 | 0.00 | 0.00 | 72 | 1020.0 |
| 20260902140045 | 43 | 269 | 0.0 | 9.0 | 0.00 | 0.00 | 0.00 | 70 | 1019.9 |
| 20260902134547 | 43 | 277 | 0.0 | 9.0 | 0.00 | 0.00 | 0.00 | 69 | 1019.7 |
| 20260902133044 | 43 | 333 | 1.0 | 5.0 | 0.00 | 0.00 | 0.00 | 69 | 1019.6 |
| 20260902131551 | 43 | 340 | 1.0 | 3.0 | 0.00 | 0.00 | 0.00 | 69 | 1019.4 |
| 20260902130057 | 43 | 340 | 1.0 | 3.0 | 0.00 | 0.00 | 0.00 | 68 | 1019.3 |
| 20260902124544 | 43 | 339 | 1.0 | 5.0 | 0.00 | 0.00 | 0.00 | 68 | 1019.2 |
| 20260902123052 | 43 | 329 | 1.0 | 3.0 | 0.00 | 0.00 | 0.00 | 66 | 1019.2 |
| 20260902121558 | 43 | 296 | 1.0 | 6.0 | 0.00 | 0.00 | 0.00 | 65 | 1019.2 |
| 20260902120045 | 43 | 0 | 0.0 | 4.0 | 0.00 | 0.00 | 0.00 | 65 | 1019.2 |
| 20260902114544 | 43 | 280 | 1.0 | 5.0 | 0.00 | 0.00 | 0.00 | 64 | 1019.2 |
| 20260902113047 | 43 | 235 | 1.0 | 4.0 | 0.00 | 0.00 | 0.00 | 64 | 1019.3 |
| 20260902111554 | 43 | 232 | 2.0 | 4.0 | 0.00 | 0.00 | 0.00 | 64 | 1019.3 |
| 20260902110051 | 43 | 232 | 1.0 | 3.0 | 0.00 | 0.00 | 0.00 | 63 | 1018.9 |
| 20260902104552 | 43 | 232 | 1.0 | 4.0 | 0.00 | 0.00 | 0.00 | 62 | 1019.0 |
| 20260902103043 | 43 | 232 | 1.0 | 4.0 | 0.00 | 0.00 | 0.00 | 61 | 1019.5 |
| 20260902101544 | 43 | 232 | 1.0 | 3.0 | 0.00 | 0.00 | 0.00 | 61 | 1019.5 |
| 20260902100103 | 43 | 232 | 0.0 | 5.0 | 0.00 | 0.00 | 0.00 | 61 | 1019.4 |
| 20260902094545 | 44 | 232 | 1.0 | 3.0 | 0.00 | 0.00 | 0.00 | 60 | 1019.1 |
| 20260902093048 | 44 | 232 | 1.0 | 6.0 | 0.00 | 0.00 | 0.00 | 59 | 1019.2 |
| 20260902091545 | 44 | 230 | 1.0 | 5.0 | 0.00 | 0.00 | 0.00 | 58 | 1019.4 |
| 20260902090053 | 44 | 230 | 2.0 | 4.0 | 0.00 | 0.00 | 0.00 | 58 | 1019.6 |
| 20260902084558 | 45 | 229 | 1.0 | 6.0 | 0.00 | 0.00 | 0.00 | 56 | 1019.5 |
| 20260902083050 | 45 | 78 | 2.0 | 12.0 | 0.00 | 0.00 | 0.00 | 54 | 1019.4 |
| 20260902081549 | 45 | 323 | 3.0 | 10.0 | 0.00 | 0.00 | 0.00 | 51 | 1019.5 |
| 20260902080046 | 45 | 203 | 2.0 | 12.0 | 0.00 | 0.00 | 0.00 | 50 | 1019.4 |
| 20260902074543 | 45 | 204 | 3.0 | 9.0 | 0.00 | 0.00 | 0.00 | 49 | 1019.5 |
| 20260902073055 | 46 | 218 | 4.0 | 18.0 | 0.00 | 0.00 | 0.00 | 53 | 1019.2 |
| 20260902071551 | 45 | 250 | 2.0 | 9.0 | 0.00 | 0.00 | 0.00 | 54 | 1019.0 |
| 20260902070050 | 45 | 171 | 2.0 | 7.0 | 0.00 | 0.00 | 0.00 | 56 | 1019.2 |
| 20260902064552 | 46 | 301 | 2.0 | 14.0 | 0.00 | 0.00 | 0.00 | 57 | 1019.2 |
| 20260902063054 | 46 | 200 | 3.0 | 11.0 | 0.00 | 0.00 | 0.00 | 58 | 1019.5 |
| 20260902061603 | 46 | 252 | 1.0 | 5.0 | 0.00 | 0.00 | 0.00 | 57 | 1019.7 |
| 20260902060049 | 46 | 251 | 2.0 | 5.0 | 0.00 | 0.00 | 0.00 | 54 | 1019.3 |
| 20260902054551 | 46 | 251 | 1.0 | 9.0 | 0.00 | 0.00 | 0.00 | 53 | 1019.1 |
| 20260902053047 | 46 | 37 | 1.0 | 4.0 | 0.00 | 0.00 | 0.00 | 56 | 1018.9 |
| 20260902051551 | 46 | 36 | 1.0 | 4.0 | 0.00 | 0.00 | 0.00 | 56 | 1018.8 |
| 20260902050104 | 47 | 0 | 1.0 | 4.0 | 0.00 | 0.00 | 0.00 | 56 | 1018.7 |
| 20260902044546 | 47 | 0 | 1.0 | 5.0 | 0.00 | 0.00 | 0.00 | 55 | 1018.5 |
| 20260902043045 | 48 | 60 | 1.0 | 3.0 | 0.00 | 0.00 | 0.00 | 54 | 1018.5 |
| 20260902041555 | 48 | 65 | 1.0 | 5.0 | 0.00 | 0.00 | 0.00 | 53 | 1018.6 |
| 20260902040049 | 48 | 314 | 2.0 | 11.0 | 0.00 | 0.00 | 0.00 | 52 | 1018.5 |
| 20260902034547 | 49 | 134 | 1.0 | 5.0 | 0.00 | 0.00 | 0.00 | 50 | 1018.3 |
| 20260902033047 | 49 | 193 | 1.0 | 5.0 | 0.00 | 0.00 | 0.00 | 49 | 1018.3 |
| 20260902031556 | 49 | 229 | 1.0 | 5.0 | 0.00 | 0.00 | 0.00 | 50 | 1018.1 |
| 20260902030051 | 50 | 347 | 1.0 | 7.0 | 0.00 | 0.00 | 0.00 | 50 | 1018.0 |
| 20260902024546 | 51 | 355 | 1.0 | 4.0 | 0.00 | 0.00 | 0.00 | 49 | 1018.1 |
| 20260902023051 | 51 | 11 | 1.0 | 4.0 | 0.00 | 0.00 | 0.00 | 47 | 1018.1 |
| 20260902021544 | 52 | 294 | 1.0 | 6.0 | 0.00 | 0.00 | 0.00 | 45 | 1017.9 |
| 20260902020055 | 53 | 267 | 1.0 | 12.0 | 0.00 | 0.00 | 0.00 | 44 | 1017.9 |
| 20260902014551 | 54 | 287 | 1.0 | 12.0 | 0.00 | 0.00 | 0.00 | 44 | 1018.0 |
| 20260902013047 | 55 | 282 | 2.0 | 8.0 | 0.00 | 0.00 | 0.00 | 44 | 1018.2 |
| 20260902011549 | 55 | 200 | 2.0 | 8.0 | 0.00 | 0.00 | 0.00 | 44 | 1018.1 |
| 20260902010105 | 56 | 186 | 1.0 | 11.0 | 0.00 | 0.00 | 0.00 | 42 | 1018.2 |
| 20260902004550 | 56 | 228 | 3.0 | 12.0 | 0.00 | 0.00 | 0.00 | 40 | 1018.4 |
| 20260902003047 | 57 | 155 | 2.0 | 11.0 | 0.00 | 0.00 | 0.00 | 40 | 1018.3 |
| 20260902001545 | 58 | 212 | 3.0 | 12.0 | 0.00 | 0.00 | 0.00 | 39 | 1018.3 |
| 20260902000048 | 58 | 178 | 3.0 | 14.0 | 0.00 | 0.00 | 0.00 | 37 | 1018.4 |
| 20260901234551 | 59 | 210 | 6.0 | 12.0 | 0.00 | 0.00 | 0.00 | 37 | 1018.5 |
| 20260901233046 | 59 | 180 | 4.0 | 15.0 | 0.00 | 0.00 | 0.00 | 37 | 1018.6 |
| 20260901231545 | 59 | 187 | 7.0 | 17.0 | 0.00 | 0.00 | 0.00 | 38 | 1018.6 |
| 20260901230044 | 60 | 180 | 3.0 | 20.0 | 0.00 | 0.00 | 0.00 | 36 | 1018.5 |
| 20260901224551 | 60 | 268 | 3.0 | 11.0 | 0.00 | 0.00 | 0.00 | 36 | 1018.7 |
| 20260901223054 | 60 | 265 | 3.0 | 11.0 | 0.00 | 0.00 | 0.00 | 35 | 1018.5 |
| 20260901221556 | 61 | 279 | 3.0 | 16.0 | 0.00 | 0.00 | 0.00 | 34 | 1018.6 |
| 20260901220044 | 62 | 199 | 5.0 | 14.0 | 0.00 | 0.00 | 0.00 | 33 | 1018.6 |
| 20260901214557 | 62 | 205 | 4.0 | 17.0 | 0.00 | 0.00 | 0.00 | 31 | 1018.5 |
| 20260901213102 | 63 | 188 | 3.0 | 17.0 | 0.00 | 0.00 | 0.00 | 30 | 1018.5 |
| 20260901211551 | 64 | 169 | 3.0 | 18.0 | 0.00 | 0.00 | 0.00 | 25 | 1018.6 |
| 20260901204543 | 64 | 186 | 4.0 | 14.0 | 0.00 | 0.00 | 0.00 | 26 | 1018.6 |
| 20260901203045 | 65 | 209 | 5.0 | 13.0 | 0.00 | 0.00 | 0.00 | 27 | 1018.9 |
| 20260901201550 | 62 | 184 | 4.0 | 15.0 | 0.00 | 0.00 | 0.00 | 33 | 1018.9 |
| 20260901200049 | 63 | 173 | 4.0 | 12.0 | 0.00 | 0.00 | 0.00 | 31 | 1018.9 |
| 20260901194552 | 63 | 177 | 4.0 | 9.0 | 0.00 | 0.00 | 0.00 | 33 | 1019.1 |
| 20260901193046 | 62 | 187 | 4.0 | 13.0 | 0.00 | 0.00 | 0.00 | 35 | 1019.3 |